Regional Weather Roundup
Issued by NWS Charleston, SC

Current Version | Previous Version | Graphics & Text | Print | Product List | Glossary On
Versions: 1 2 3 4 5 6 7 8 9 10 11 12 13 14 15 16 17 18 19 20 21 22 23 24 25 26 27 28 29 30 31 32 33 34 35 36 37 38 39 40 41 42 43 44 45 46 47 48 49 50
000
ASUS42 KCHS 091327
RWRCHS

REGIONAL WEATHER ROUNDUP
NATIONAL WEATHER SERVICE CHARLESTON SC
800 AM EST FRI DEC 09 2016

NOTE: "FAIR" INDICATES FEW OR NO CLOUDS BELOW 12,000 FEET WITH NO
SIGNIFICANT WEATHER AND/OR OBSTRUCTIONS TO VISIBILITY.

NOT ALL STATIONS ARE QUALITY CONTROLLED. USE DATA WITH CAUTION...
ESPECIALLY DEWPOINT OBSERVATIONS.

SCZ027-030-031-034>040-042>050-091400-
...SOUTHEAST SOUTH CAROLINA...

CITY           SKY/WX    TMP DP  RH WIND       PRES   REMARKS
N CHARLESTON   PTCLDY    40  22  48 N10       30.38R WCI  33
WATERFRONT PRK   N/A     42  28  57 N13       30.36R
MOUNT PLEASANT NOT AVBL
JOHNS ISLAND   NOT AVBL
PINOPOLIS        N/A     41  27  56 N14       30.31R
MONCKS CORNER  FAIR      39  16  38 N7G16     30.40R WCI  34
SUMMERVILLE    NOT AVBL
BEAUFORT MCAS  CLEAR     40  25  55 N8        30.40R WCI  34
BEAUFORT ARPT  FAIR      41  27  56 N8        30.40R HAZE
HILTON HEAD IS CLEAR     41  25  52 N12       30.39R
WALTERBORO     SUNNY     36  30  80 N3        30.42R
ALLENDALE      FAIR      36  28  75 VRB3      30.41R

...SOUTHERN MIDLANDS AND PEE DEE...

CITY           SKY/WX    TMP DP  RH WIND       PRES   REMARKS
GEORGETOWN     NOT AVBL
KINGSTREE      FAIR      32  27  80 CALM      30.41R
ORANGEBURG     CLEAR     35  18  49 NW5       30.40R WCI  31
BARNWELL       NOT AVBL
AIKEN          FAIR      32  19  59 NW5       30.43R WCI  27
MANNING        FAIR      32  27  80 N3        30.41R
COLUMBIA       CLEAR     36  17  46 NW6       30.40R WCI  31
SUMTER         CLEAR     33  21  61 N5        30.37R WCI  29
FLORENCE       CLEAR     33  22  63 N6        30.40R WCI  28
MYRTLE BEACH   CLEAR    N/A N/A N/A N12       30.39R
N MYRTLE BEACH CLEAR     35  24  64 N6        30.37R WCI  30

$$

GAZ063-065-086>088-099>101-113>116-118-119-134>141-150-091400-
...SOUTHEAST GEORGIA...

CITY           SKY/WX    TMP DP  RH WIND       PRES   REMARKS
SAVANNAH ARPT  PTCLDY    39  27  62 N7        30.40R WCI  34
HUNTER AAF     PTCLDY    39  30  69 NW7       30.37R WCI  34
FORT STEWART   CLEAR     37  27  67 CALM      30.38R
STATESBORO     CLEAR     38  28  69 N7        30.42R WCI  32
SYLVANIA       SUNNY    N/A N/A N/A N6        30.42R
CLAXTON        FAIR      39  28  65 W5        30.43R WCI  35

...CSRA...CENTRAL AND FAR SOUTHEAST GEORGIA...

CITY           SKY/WX    TMP DP  RH WIND       PRES   REMARKS
THOMSON        CLEAR     32  29  89 CALM      30.47R
AUGUSTA-BUSH   CLEAR     29  24  82 VRB3      30.42R
AUGUSTA-DANIEL CLEAR     34  22  61 NW5       30.41R WCI  30
SWAINSBORO     FAIR      34  23  64 MISG      30.44R
VIDALIA        CLEAR     36  30  80 N8        30.43R WCI  29
EASTMAN        FAIR      35  16  46 CALM      30.48R
HAZLEHURST     FAIR      38  26  61 CALM      30.43R
ALMA           CLOUDY    38  24  57 NW6       30.41R WCI  33
WAYCROSS       MOCLDY    42  29  58 N8        30.42R
JESUP          FAIR      41  32  70 N5        30.42R
BAXLEY         FAIR      37  30  75 N3        30.42R
BRUNSWICK      MOCLDY    41  32  70 NW5       30.41R
SAINT SIMONS   MOCLDY    42  26  53 NW12G17   30.38R

$$

SCZ027-028-034-036>038-045-046-048>050-GAZ119-141-091400-
...LAKE AND SUPPLEMENTAL COASTAL OBSERVATIONS...

STATION/POSITION TIME  TEMP    WIND        PRES    WAVE   SWELL
                       AIR SEA DIR/SP/G            HT/PER HT/PER/DIR
                 (UTC) (F)     (DEG/KT/KT) (MB)    (FT/S) (FT/S/D)
WINYAH BAY       1245   36     360/  3     1028.0R
LAKE MURRAY      1220   33     330/  2/  6 1028.4
ACE BASIN NERRS  1245   38     350/  3     1029.0R
FORT PULASKI     1300   41 61  360/ 10/ 12 1029.2
SAPELO ISLAND    1300   42     340/  9     1029.0

$$

ANZ835-935-AMZ111-154-330-350-352-354-370-450-454-472-091400-
...C-MAN AND BUOY OBSERVATIONS...

STATION/POSITION TIME  TEMP    WIND        PRES    WAVE   SWELL
                       AIR SEA DIR/SP/G            HT/PER HT/PER/DIR
                 (UTC) (F)     (DEG/KT/KT) (MB)    (FT/S) (FT/S/D)
BUOY 41004       1250   51 73   10/ 17/ 23 1026.5R   6/ 7
BUOY 41008       1250   49 63  360/ 16/ 21 1027.6R   4/ 6   2/110/10
FOLLY BEACH CMAN 1300   43     360/ 11/ 14 1029.0R
CAPERS NEARSHORE 1208   44 60   20/ 17/ 23 1027.5R
FRIPP NEARSHORE  1308   46 61   10/ 16/ 21 1028.8R


STATION/POSITION TIME  TEMP    WIND        PRES    WAVE   SWELL
                       AIR SEA DIR/SP/G            HT/PER HT/PER/DIR
                 (UTC) (F)     (DEG/KT/KT) (MB)    (FT/S) (FT/S/D)
5E ST. MARYS GA  1300      65                N/A     4/ 4
FRYING PAN BUOY  1300   48 73   10/ 19/ 27 1027.0
BUOY 41025       1250   44 75  350/ 19/ 23 1024.7R   6/ 6   2/200/11
CAPE LOOKOUT NC  1300   38     340/ 17/ 20 1026.5R
BUOY 41002       1250   62 74  360/ 17/ 23 1021.9R   7/ 8   3/ 30/11
BUOY 41010       NOT AVBL
ST AUGUSTINE FL  1300   47 65  330/ 14/ 16 1027.7S


$$




USA.gov is the U.S. government's official web portal to all federal, state and local government web resources and services.